Weather History for Covington, KY

Change the Weather History Date:

Sunday, March 17, 2013

  Actual Average Record
Temperature  
Mean Temperature 36 °F 44 °F  
Max Temperature 38 °F 54 °F 76 °F (1889)
Min Temperature 34 °F 34 °F 5 °F (1900)
Degree Days  
Heating Degree Days 29 21  
Month to date heating degree days 474 407  
Since 1 July heating degree days 4184 4234  
Cooling Degree Days 0 0  
Month to date cooling degree days 0 0  
Year to date cooling degree days 0 0  
Moisture  
Dew Point 33 °F    
Average Humidity 88    
Maximum Humidity 100    
Minimum Humidity 75    
Precipitation  
Precipitation 0.23 in 0.13 in 1.07 in (1897)
Month to date precipitation 2.48 2.00  
Year to date precipitation 8.08 7.81  
Snow  
Snow T in 0.10 in 4.10 in (1970)
Month to date snowfall 5.5 2.0  
Since 1 July snowfall 21.9 20.6  
Snow Depth 0.00 in    
Sea Level Pressure  
Sea Level Pressure 30.07 in    
Wind  
Wind Speed 12 mph (ENE)    
Max Wind Speed 20 mph    
Max Gust Speed 24 mph    
Visibility 5 miles    
Events Rain , Snow    
T = Trace of Precipitation, MM = Missing Value Source: NWS Daily Summary

Daily Weather History Graph

Daily Weather History Graph

Search for Another Location

Airport:

Trip Planner

Search our weather history database for the weather conditions in past years. The results will help you decide how hot, cold, wet, or windy it might be!

Date:

Astronomy

Mar. 17, 2013 Rise Set
Actual Time 7:46 AM EDT 7:47 PM EDT
Civil Twilight 7:19 AM EDT 8:14 PM EDT
Nautical Twilight 6:48 AM EDT 8:45 PM EDT
Astronomical Twilight 6:17 AM EDT 9:17 PM EDT
Moon 11:01 AM EDT (3/17) 12:52 AM EDT (3/17)
Length of Visible Light 12h 54m
Length of Day
12h 01m
Waxing Crescent, 31% of the Moon is Illuminated
Mar 17
Waxing Crescent
Mar 19
First Quarter
Mar 27
Full
Apr 3
Last Quarter
Apr 10
New

Hourly Weather History & Observations

Time (EDT) Temp. Windchill Dew Point Humidity Pressure Visibility Wind Dir Wind Speed Gust Speed Precip Events Conditions
12:52 AM 37.9 °F 32.1 °F 33.1 °F 83% 30.01 in 7.0 mi NNE 8.1 mph - N/A   Overcast
1:52 AM 37.9 °F 31.5 °F 33.1 °F 83% 30.01 in 7.0 mi NNE 9.2 mph - N/A   Overcast
2:52 AM 37.0 °F 29.3 °F 33.1 °F 86% 30.00 in 7.0 mi NE 11.5 mph - N/A   Overcast
3:52 AM 37.0 °F 28.5 °F 32.0 °F 82% 30.00 in 7.0 mi NNE 13.8 mph - N/A   Overcast
4:52 AM 36.0 °F 27.5 °F 30.9 °F 82% 30.03 in 8.0 mi NNE 12.7 mph - N/A   Overcast
5:52 AM 35.1 °F 26.9 °F 30.0 °F 82% 30.05 in 8.0 mi NNE 11.5 mph - N/A   Overcast
6:52 AM 35.1 °F 26.9 °F 28.9 °F 78% 30.09 in 9.0 mi NNE 11.5 mph - N/A   Overcast
7:52 AM 34.0 °F 26.6 °F 28.9 °F 82% 30.11 in 2.5 mi NNE 9.2 mph - 0.00 in Snow Light Snow
8:52 AM 34.0 °F 26.6 °F 30.0 °F 85% 30.13 in 9.0 mi NE 9.2 mph - 0.00 in   Overcast
9:52 AM 35.1 °F 25.9 °F 28.0 °F 76% 30.13 in 10.0 mi ENE 13.8 mph - N/A   Overcast
10:42 AM 33.8 °F 24.8 °F 28.4 °F 81% 30.11 in 2.5 mi ENE 12.7 mph - 0.00 in Snow Light Snow
10:52 AM 34.0 °F 25.5 °F 30.0 °F 85% 30.13 in 2.5 mi ENE 11.5 mph - 0.00 in Snow Light Snow
11:02 AM 33.8 °F 25.8 °F 30.2 °F 87% 30.12 in 4.0 mi East 10.4 mph - 0.00 in Snow Light Snow
11:52 AM 36.0 °F 27.1 °F 28.9 °F 76% 30.13 in 10.0 mi ENE 13.8 mph - 0.00 in   Overcast
12:52 PM 36.0 °F 27.1 °F 28.9 °F 76% 30.13 in 7.0 mi ENE 13.8 mph - 0.00 in Snow Light Snow
1:26 PM 35.6 °F 26.6 °F 30.2 °F 81% 30.11 in 2.0 mi East 13.8 mph - 0.00 in Snow Light Snow
2:14 PM 35.6 °F 28.0 °F 33.8 °F 93% 30.10 in 1.0 mi ENE 10.4 mph - 0.00 in Snow Light Snow
2:52 PM 35.1 °F 27.4 °F 33.1 °F 92% 30.12 in 1.8 mi NE 10.4 mph - 0.00 in Snow Light Snow
3:21 PM 35.6 °F 28.0 °F 33.8 °F 93% 30.09 in 1.0 mi ENE 10.4 mph - 0.01 in Snow Light Snow
3:50 PM 35.6 °F 29.2 °F 35.6 °F 100% 30.08 in 1.0 mi ENE 8.1 mph - 0.01 in Snow Light Snow
3:52 PM 35.1 °F 28.6 °F 35.1 °F 100% 30.10 in 1.0 mi ENE 8.1 mph - 0.01 in Snow Light Snow
4:04 PM 33.8 °F 26.4 °F 33.8 °F 100% 30.08 in 1.0 mi East 9.2 mph - 0.00 in Snow Light Snow
4:52 PM 35.1 °F 27.9 °F 35.1 °F 100% 30.08 in 1.0 mi ENE 9.2 mph - 0.01 in Snow Light Snow
5:32 PM 35.6 °F 27.1 °F 35.6 °F 100% 30.05 in 2.5 mi ENE 12.7 mph - 0.01 in   Overcast
5:49 PM 35.6 °F 27.5 °F 35.6 °F 100% 30.05 in 3.0 mi ENE 11.5 mph - 0.01 in   Overcast
5:52 PM 36.0 °F 28.5 °F 36.0 °F 100% 30.06 in 3.0 mi ENE 10.4 mph - 0.01 in   Overcast
6:52 PM 36.0 °F 27.1 °F 36.0 °F 100% 30.06 in 7.0 mi ENE 13.8 mph - N/A   Overcast
7:52 PM 36.0 °F 29.0 °F 36.0 °F 100% 30.06 in 8.0 mi ENE 9.2 mph - N/A   Overcast
8:52 PM 35.1 °F 25.2 °F 35.1 °F 100% 30.05 in 3.0 mi ENE 16.1 mph - 0.00 in Snow Light Snow
9:31 PM 35.6 °F 27.1 °F 35.6 °F 100% 30.02 in 6.0 mi East 12.7 mph 19.6 mph 0.01 in Rain Light Rain
9:52 PM 35.1 °F 26.9 °F 35.1 °F 100% 30.04 in 5.0 mi ENE 11.5 mph - 0.02 in Rain Light Rain
10:52 PM 34.0 °F 24.6 °F 34.0 °F 100% 30.01 in 4.0 mi East 13.8 mph - 0.05 in Rain Light Rain
11:52 PM 34.0 °F 25.0 °F 34.0 °F 100% 29.99 in 4.0 mi ENE 12.7 mph - 0.07 in Rain Light Rain